This demonstration page uses our WeatherBlox Daily Observations layout. Learn more.

Left ArrowRight Arrow

39.08367, -84.50855

Hourly Observations for May 21, 2020

Temp ( °F °C ) Dew Point ( °F °C ) Humidity (%) Winds ( mph kmh ) Pressure ( in mb ) Visibility ( mi km ) Precip ( " mm )
12:53 am 00:53 Cloudy 55 12.8 51 10.6 87 87 ENE 7 11 30.1 1019 10 16.0934 0 0
1:23 am 01:23 Cloudy 55 12.8 51 10.6 87 87 ENE 8 13 30.1 1019 10 16.0934 0 0
1:53 am 01:53 Cloudy 55 12.8 51 10.6 87 87 ENE 7 11 30.09 1019 10 16.0934 0 0
2:15 am 02:15 Cloudy 55 12.8 52 11.1 90 90 NE 7 11 30.09 1019 10 16.0934 0 0
2:53 am 02:53 Cloudy 55 12.8 52 11.1 90 90 NE 8 13 30.07 1018 10 16.0934 0 0
3:53 am 03:53 Cloudy 55 12.8 52 11.1 90 90 NE 7 11 30.07 1018 10 16.0934 0 0
4:53 am 04:53 Cloudy 56 13.3 52 11.1 87 87 ENE 7 11 30.06 1018 10 16.0934 0 0
5:53 am 05:53 Cloudy 56 13.3 52 11.1 87 87 NE 6 9 30.07 1018 10 16.0934 0 0
6:53 am 06:53 Cloudy 56 13.3 52 11.1 87 87 ENE 8 13 30.09 1019 10 16.0934 0 0
7:53 am 07:53 Cloudy 57 13.9 53 11.7 87 87 NE 5 7 30.09 1019 10 16.0934 0 0
8:53 am 08:53 Cloudy 58 14.4 53 11.7 84 84 E 8 13 30.1 1019 10 16.0934 0 0
9:53 am 09:53 Cloudy 59 15 53 11.7 81 81 E 8 13 30.1 1019 10 16.0934 0 0
10:53 am 10:53 Cloudy 61 16.1 54 12.2 78 78 E 8 13 30.1 1019 10 16.0934 0 0
11:53 am 11:53 Cloudy with Light Rain 59 15 56 13.3 90 90 E 5 7 30.11 1020 8 12.87472 0.03 0.762
12:53 pm 12:53 Cloudy with Light Rain 59 15 57 13.9 93 93 NE 7 11 30.09 1019 5 8.0467 0.1 2.54
1:53 pm 13:53 Cloudy 61 16.1 57 13.9 87 87 SE 6 9 30.09 1019 10 16.0934 0.01 0.254
2:53 pm 14:53 Cloudy with Light Rain 62 16.7 58 14.4 86 86 Calm 30.07 1018 8 12.87472 0.01 0.254
3:53 pm 15:53 Cloudy with Light Rain 62 16.7 58 14.4 86 86 ENE 3 6 30.08 1019 10 16.0934 0.01 0.254
4:53 pm 16:53 Cloudy 63 17.2 59 15 87 87 E 6 9 30.05 1018 10 16.0934 0.001 0.001
5:53 pm 17:53 Cloudy 62 16.7 58 14.4 86 86 ESE 6 9 30.06 1018 10 16.0934 0 0
6:53 pm 18:53 Cloudy 62 16.7 58 14.4 86 86 Calm 30.05 1018 10 16.0934 0 0
7:53 pm 19:53 Cloudy with Mist and Fog 63 17.2 59 15 87 87 NE 5 7 30.05 1018 6 9.65604 0 0
8:53 pm 20:53 Cloudy 62 16.7 59 15 90 90 ENE 7 11 30.05 1018 10 16.0934 0 0
9:53 pm 21:53 Cloudy 60 15.6 59 15 96 96 NE 3 6 30.06 1018 10 16.0934 0 0
10:53 pm 22:53 Cloudy 60 15.6 59 15 96 96 Calm 30.07 1018 10 16.0934 0 0
11:25 pm 23:25 Cloudy 60 15.6 59 15 96 96 NNE 5 7 30.08 1019 10 16.0934 0 0
11:53 pm 23:53 Cloudy 60 15.6 59 15 96 96 NE 5 7 30.06 1018 10 16.0934 0 0

Powered by AerisWeather